| time (UTC) | temp F | wind direction | speed knots | gust knots | rain 1hr in | rain 24hr in | rain mn in | humidity % | barometer mb |
| 20260507000627 | 49 | 263 | 0.9 | 2.6 | 0.00 | 0.32 | 0.32 | 90 | 1010.2 |
| 20260507000125 | 49 | 263 | 0.9 | 1.7 | 0.00 | 0.32 | 0.32 | 89 | 1010.2 |
| 20260506235841 | 49 | 263 | 0.9 | 3.5 | 0.00 | 0.32 | 0.32 | 90 | 1010.0 |
| 20260506235123 | 49 | 263 | 0.9 | 3.5 | 0.00 | 0.32 | 0.32 | 89 | 1009.9 |
| 20260506234839 | 49 | 244 | 0.9 | 2.6 | 0.00 | 0.32 | 0.32 | 90 | 1009.8 |
| 20260506234118 | 49 | 104 | 0.9 | 2.6 | 0.00 | 0.32 | 0.32 | 90 | 1009.8 |
| 20260506233618 | 49 | 104 | 0.9 | 3.5 | 0.00 | 0.32 | 0.32 | 90 | 1010.0 |
| 20260506233118 | 49 | 98 | 1.7 | 6.1 | 0.00 | 0.32 | 0.32 | 89 | 1010.0 |
| 20260506232619 | 50 | 257 | 1.7 | 6.1 | 0.00 | 0.32 | 0.32 | 89 | 1009.9 |
| 20260506232120 | 50 | 42 | 0.9 | 4.3 | 0.00 | 0.32 | 0.32 | 90 | 1010.0 |
| 20260506231620 | 50 | 244 | 0.9 | 3.5 | 0.00 | 0.32 | 0.32 | 89 | 1009.9 |
| 20260506231119 | 50 | 283 | 0.9 | 4.3 | 0.00 | 0.32 | 0.32 | 90 | 1009.7 |
| 20260506230615 | 50 | 350 | 0.9 | 4.3 | 0.00 | 0.32 | 0.32 | 89 | 1009.6 |
| 20260506230114 | 50 | 137 | 0.9 | 6.1 | 0.00 | 0.32 | 0.32 | 89 | 1009.5 |
| 20260506225614 | 50 | 137 | 0.9 | 6.1 | 0.00 | 0.32 | 0.32 | 88 | 1009.3 |
| 20260506225114 | 51 | 181 | 0.9 | 3.5 | 0.00 | 0.32 | 0.32 | 89 | 1009.2 |
| 20260506224614 | 51 | 232 | 0.9 | 3.5 | 0.00 | 0.32 | 0.32 | 88 | 1009.3 |
| 20260506224117 | 51 | 190 | 0.9 | 4.3 | 0.00 | 0.32 | 0.32 | 88 | 1009.0 |
| 20260506223614 | 51 | 182 | 0.9 | 4.3 | 0.00 | 0.32 | 0.32 | 88 | 1008.8 |
| 20260506223112 | 51 | 136 | 1.7 | 5.2 | 0.00 | 0.32 | 0.32 | 88 | 1008.6 |
| 20260506222612 | 51 | 189 | 1.7 | 6.1 | 0.00 | 0.32 | 0.32 | 89 | 1008.5 |
| 20260506222112 | 51 | 92 | 2.6 | 6.1 | 0.01 | 0.32 | 0.32 | 89 | 1008.2 |
| 20260506221610 | 51 | 311 | 2.6 | 6.1 | 0.01 | 0.32 | 0.32 | 90 | 1008.2 |
| 20260506221110 | 51 | 238 | 3.5 | 9.6 | 0.01 | 0.32 | 0.32 | 91 | 1008.0 |
| 20260506220611 | 52 | 306 | 3.5 | 9.6 | 0.01 | 0.32 | 0.32 | 91 | 1007.8 |
| 20260506220337 | 52 | 340 | 3.5 | 10.4 | 0.01 | 0.32 | 0.32 | 91 | 1007.5 |
| 20260506215608 | 52 | 253 | 4.3 | 13.9 | 0.01 | 0.32 | 0.32 | 90 | 1007.5 |
| 20260506215108 | 53 | 293 | 5.2 | 13.9 | 0.01 | 0.32 | 0.32 | 90 | 1007.4 |
| 20260506214611 | 53 | 325 | 5.2 | 11.3 | 0.01 | 0.32 | 0.32 | 90 | 1007.3 |
| 20260506214108 | 54 | 236 | 4.3 | 13.0 | 0.01 | 0.32 | 0.32 | 90 | 1007.2 |
| 20260506213608 | 55 | 355 | 4.3 | 13.0 | 0.01 | 0.32 | 0.32 | 91 | 1007.1 |
| 20260506213108 | 55 | 291 | 4.3 | 13.0 | 0.01 | 0.32 | 0.32 | 91 | 1006.9 |
| 20260506212609 | 56 | 275 | 4.3 | 13.0 | 0.01 | 0.32 | 0.32 | 91 | 1006.9 |
| 20260506212108 | 56 | 286 | 5.2 | 13.0 | 0.00 | 0.31 | 0.31 | 91 | 1006.7 |
| 20260506211608 | 56 | 300 | 3.5 | 13.0 | 0.00 | 0.31 | 0.31 | 91 | 1006.8 |
| 20260506211108 | 57 | 294 | 2.6 | 11.3 | 0.00 | 0.31 | 0.31 | 91 | 1006.3 |
| 20260506210608 | 57 | 294 | 3.5 | 11.3 | 0.00 | 0.31 | 0.31 | 90 | 1006.3 |
| 20260506210111 | 57 | 251 | 3.5 | 11.3 | 0.00 | 0.31 | 0.31 | 89 | 1006.2 |
| 20260506205608 | 58 | 275 | 4.3 | 16.5 | 0.00 | 0.31 | 0.31 | 89 | 1006.3 |
| 20260506205108 | 59 | 278 | 4.3 | 16.5 | 0.00 | 0.31 | 0.31 | 88 | 1006.0 |
| 20260506204608 | 60 | 281 | 3.5 | 14.8 | 0.00 | 0.31 | 0.31 | 91 | 1005.8 |
| 20260506204108 | 61 | 265 | 1.7 | 5.2 | 0.00 | 0.31 | 0.31 | 93 | 1005.6 |
| 20260506203609 | 61 | 270 | 1.7 | 7.0 | 0.00 | 0.31 | 0.31 | 93 | 1005.5 |
| 20260506203110 | 61 | 265 | 1.7 | 9.6 | 0.00 | 0.31 | 0.31 | 94 | 1005.4 |
| 20260506202608 | 61 | 240 | 1.7 | 9.6 | 0.00 | 0.31 | 0.31 | 94 | 1005.5 |
| 20260506202108 | 61 | 259 | 2.6 | 7.0 | 0.00 | 0.31 | 0.31 | 94 | 1005.6 |
| 20260506201609 | 60 | 208 | 2.6 | 8.7 | 0.00 | 0.31 | 0.31 | 94 | 1005.6 |
| 20260506201108 | 60 | 250 | 2.6 | 8.7 | 0.00 | 0.31 | 0.31 | 94 | 1005.7 |
| 20260506200608 | 60 | 254 | 2.6 | 8.7 | 0.00 | 0.31 | 0.31 | 94 | 1005.6 |
| 20260506200110 | 60 | 254 | 3.5 | 7.8 | 0.00 | 0.31 | 0.31 | 94 | 1005.7 |
| 20260506195608 | 60 | 239 | 2.6 | 7.8 | 0.00 | 0.31 | 0.31 | 94 | 1005.8 |
| 20260506195105 | 60 | 271 | 2.6 | 7.0 | 0.00 | 0.31 | 0.31 | 94 | 1005.7 |
| 20260506194606 | 60 | 241 | 2.6 | 6.1 | 0.00 | 0.31 | 0.31 | 94 | 1005.8 |
| 20260506194108 | 60 | 200 | 1.7 | 6.1 | 0.00 | 0.31 | 0.31 | 94 | 1005.8 |
| 20260506193605 | 60 | 220 | 1.7 | 8.7 | 0.00 | 0.31 | 0.31 | 94 | 1005.8 |
| 20260506193102 | 60 | 229 | 2.6 | 10.4 | 0.00 | 0.31 | 0.31 | 94 | 1005.8 |
| 20260506192601 | 60 | 292 | 2.6 | 10.4 | 0.00 | 0.31 | 0.31 | 94 | 1005.9 |
| 20260506192102 | 60 | 251 | 2.6 | 7.8 | 0.00 | 0.31 | 0.31 | 94 | 1005.9 |
| 20260506191603 | 60 | 252 | 2.6 | 7.8 | 0.00 | 0.31 | 0.31 | 94 | 1005.8 |
| 20260506191105 | 60 | 197 | 2.6 | 6.1 | 0.00 | 0.31 | 0.31 | 94 | 1005.7 |
| 20260506190602 | 60 | 238 | 2.6 | 8.7 | 0.00 | 0.31 | 0.31 | 94 | 1006.0 |
| 20260506185601 | 60 | 246 | 1.7 | 5.2 | 0.00 | 0.31 | 0.31 | 94 | 1006.1 |
| 20260506185320 | 60 | 263 | 1.7 | 9.6 | 0.00 | 0.31 | 0.31 | 94 | 1006.1 |
| 20260506184603 | 60 | 258 | 2.6 | 9.6 | 0.00 | 0.31 | 0.31 | 94 | 1006.0 |
| 20260506184555 | 60 | 248 | 2.6 | 7.8 | 0.01 | 0.31 | 0.31 | 94 | 1006.2 |
| 20260506183822 | 60 | 279 | 2.6 | 9.6 | 0.01 | 0.31 | 0.31 | 94 | 1006.2 |
| 20260506183057 | 60 | 268 | 2.6 | 9.6 | 0.01 | 0.31 | 0.31 | 94 | 1006.2 |
| 20260506182556 | 60 | 186 | 2.6 | 10.4 | 0.01 | 0.31 | 0.31 | 94 | 1006.2 |
| 20260506182056 | 60 | 158 | 2.6 | 10.4 | 0.02 | 0.31 | 0.31 | 95 | 1006.2 |
| 20260506181555 | 60 | 240 | 1.7 | 7.8 | 0.02 | 0.31 | 0.31 | 95 | 1006.3 |
| 20260506181055 | 60 | 248 | 1.7 | 6.1 | 0.02 | 0.31 | 0.31 | 95 | 1006.4 |
| 20260506180558 | 60 | 224 | 2.6 | 6.1 | 0.03 | 0.31 | 0.31 | 95 | 1006.4 |
| 20260506180056 | 60 | 250 | 2.6 | 6.1 | 0.04 | 0.31 | 0.31 | 95 | 1006.4 |
| 20260506175556 | 60 | 270 | 2.6 | 6.1 | 0.04 | 0.31 | 0.31 | 95 | 1006.6 |
| 20260506175315 | 60 | 309 | 1.7 | 7.0 | 0.05 | 0.31 | 0.31 | 94 | 1006.6 |
| 20260506174558 | 60 | 271 | 1.7 | 7.0 | 0.06 | 0.31 | 0.31 | 95 | 1006.4 |
| 20260506174056 | 60 | 234 | 2.6 | 7.0 | 0.05 | 0.30 | 0.30 | 95 | 1006.6 |
| 20260506173556 | 60 | 229 | 2.6 | 7.8 | 0.05 | 0.30 | 0.30 | 95 | 1006.6 |
| 20260506173058 | 60 | 68 | 2.6 | 7.8 | 0.06 | 0.30 | 0.30 | 95 | 1006.4 |
| 20260506172558 | 60 | 302 | 1.7 | 7.8 | 0.06 | 0.30 | 0.30 | 95 | 1006.4 |
| 20260506172056 | 60 | 256 | 1.7 | 7.8 | 0.05 | 0.29 | 0.30 | 95 | 1006.7 |
| 20260506171820 | 60 | 264 | 1.7 | 3.5 | 0.05 | 0.29 | 0.29 | 95 | 1006.8 |
| 20260506171058 | 60 | 234 | 0.9 | 3.5 | 0.05 | 0.29 | 0.29 | 95 | 1006.7 |
| 20260506170548 | 60 | 275 | 0.9 | 3.5 | 0.04 | 0.28 | 0.28 | 94 | 1006.7 |
| 20260506170048 | 60 | 268 | 0.9 | 3.5 | 0.04 | 0.27 | 0.27 | 95 | 1006.7 |
| 20260506170036 | 60 | 275 | 0.9 | 3.5 | 0.04 | 0.27 | 0.27 | 95 | 1006.8 |
| 20260506165047 | 60 | 263 | 0.9 | 2.6 | 0.05 | 0.26 | 0.26 | 95 | 1006.7 |
| 20260506164548 | 60 | 261 | 0.9 | 6.1 | 0.05 | 0.25 | 0.25 | 94 | 1006.7 |
| 20260506164050 | 60 | 261 | 1.7 | 6.1 | 0.06 | 0.25 | 0.25 | 94 | 1006.8 |
| 20260506163547 | 60 | 260 | 1.7 | 5.2 | 0.08 | 0.25 | 0.25 | 94 | 1006.7 |
| 20260506163053 | 60 | 259 | 1.7 | 5.2 | 0.07 | 0.24 | 0.25 | 94 | 1006.7 |
| 20260506162553 | 60 | 215 | 1.7 | 7.0 | 0.08 | 0.24 | 0.24 | 94 | 1006.7 |
| 20260506162052 | 60 | 166 | 1.7 | 7.0 | 0.08 | 0.24 | 0.24 | 94 | 1006.7 |
| 20260506162044 | 60 | 269 | 0.9 | 3.5 | 0.09 | 0.24 | 0.24 | 94 | 1006.6 |
| 20260506161051 | 60 | 295 | 0.9 | 4.3 | 0.09 | 0.24 | 0.24 | 94 | 1006.8 |
| 20260506160551 | 60 | 265 | 0.9 | 4.3 | 0.09 | 0.24 | 0.24 | 94 | 1006.8 |
| 20260506160312 | 60 | 244 | 0.9 | 3.5 | 0.08 | 0.23 | 0.23 | 94 | 1006.9 |
| 20260506155545 | 60 | 213 | 1.7 | 6.1 | 0.09 | 0.23 | 0.23 | 94 | 1006.9 |
| 20260506155046 | 60 | 280 | 0.9 | 6.1 | 0.07 | 0.21 | 0.22 | 93 | 1007.1 |
| 20260506154556 | 60 | 277 | 1.7 | 7.0 | 0.06 | 0.20 | 0.20 | 93 | 1007.1 |
| 20260506154045 | 60 | 219 | 1.7 | 7.0 | 0.06 | 0.19 | 0.19 | 93 | 1007.1 |
| 20260506153547 | 60 | 252 | 0.9 | 4.3 | 0.04 | 0.17 | 0.18 | 93 | 1007.1 |
| 20260506153043 | 60 | 225 | 0.9 | 4.3 | 0.04 | 0.17 | 0.17 | 93 | 1007.2 |
| 20260506152543 | 60 | 271 | 1.7 | 6.1 | 0.03 | 0.16 | 0.16 | 93 | 1007.1 |
| 20260506152043 | 60 | 171 | 1.7 | 6.1 | 0.04 | 0.16 | 0.16 | 93 | 1007.1 |
| 20260506151543 | 60 | 149 | 0.9 | 4.3 | 0.03 | 0.15 | 0.15 | 93 | 1007.0 |
| 20260506151045 | 60 | 196 | 0.0 | 4.3 | 0.04 | 0.15 | 0.15 | 93 | 1006.9 |
| 20260506150539 | 60 | 194 | 0.9 | 4.3 | 0.05 | 0.15 | 0.15 | 93 | 1007.0 |
| 20260506150039 | 60 | 236 | 0.9 | 3.5 | 0.06 | 0.15 | 0.15 | 93 | 1006.8 |
| 20260506145540 | 60 | 233 | 0.9 | 4.3 | 0.05 | 0.14 | 0.14 | 93 | 1006.9 |
| 20260506145037 | 60 | 148 | 1.7 | 4.3 | 0.06 | 0.14 | 0.14 | 93 | 1006.9 |
| 20260506144539 | 60 | 284 | 0.9 | 3.5 | 0.07 | 0.14 | 0.14 | 93 | 1007.0 |
| 20260506144038 | 60 | 244 | 0.9 | 2.6 | 0.06 | 0.13 | 0.13 | 93 | 1007.0 |
| 20260506143801 | 60 | 225 | 0.0 | 1.7 | 0.07 | 0.13 | 0.13 | 94 | 1007.0 |
| 20260506143039 | 60 | 225 | 0.0 | 0.9 | 0.07 | 0.13 | 0.13 | 94 | 1007.0 |
| 20260506142535 | 59 | 225 | 0.0 | 0.0 | 0.08 | 0.13 | 0.13 | 94 | 1007.0 |
| 20260506142257 | 59 | 225 | 0.0 | 0.9 | 0.08 | 0.12 | 0.12 | 94 | 1007.0 |
| 20260506141534 | 59 | 225 | 0.0 | 1.7 | 0.08 | 0.12 | 0.12 | 93 | 1007.1 |
| 20260506141029 | 59 | 225 | 0.9 | 1.7 | 0.08 | 0.11 | 0.11 | 93 | 1007.2 |
| 20260506140529 | 59 | 225 | 0.9 | 2.6 | 0.08 | 0.10 | 0.10 | 93 | 1007.4 |
| 20260506140029 | 59 | 225 | 0.9 | 2.6 | 0.07 | 0.09 | 0.10 | 92 | 1007.4 |
| 20260506135527 | 59 | 203 | 1.7 | 3.5 | 0.08 | 0.09 | 0.09 | 92 | 1007.5 |
| 20260506135253 | 59 | 191 | 0.9 | 3.5 | 0.07 | 0.08 | 0.08 | 92 | 1007.5 |
| 20260506134742 | 60 | 200 | 0.9 | 5.2 | 0.06 | 0.07 | 0.07 | 92 | 1007.8 |
| 20260506134023 | 60 | 227 | 0.9 | 5.2 | 0.07 | 0.07 | 0.07 | 91 | 1007.7 |
| 20260506133522 | 60 | 242 | 0.0 | 2.6 | 0.06 | 0.06 | 0.06 | 91 | 1007.7 |
| 20260506133024 | 60 | 196 | 0.9 | 2.6 | 0.06 | 0.06 | 0.06 | 91 | 1007.8 |
| 20260506133006 | 60 | 144 | 0.9 | 3.5 | 0.05 | 0.05 | 0.05 | 90 | 1008.0 |
| 20260506132019 | 60 | 129 | 1.7 | 3.5 | 0.04 | 0.04 | 0.04 | 89 | 1008.0 |
| 20260506131740 | 60 | 236 | 1.7 | 5.2 | 0.04 | 0.04 | 0.04 | 89 | 1008.1 |
| 20260506131017 | 60 | 224 | 1.7 | 5.2 | 0.03 | 0.03 | 0.03 | 88 | 1008.2 |
| 20260506130519 | 60 | 186 | 1.7 | 4.3 | 0.02 | 0.02 | 0.02 | 88 | 1008.2 |
| 20260506130015 | 60 | 225 | 1.7 | 5.2 | 0.02 | 0.02 | 0.02 | 87 | 1008.1 |
| 20260506125515 | 60 | 285 | 0.9 | 5.2 | 0.01 | 0.01 | 0.01 | 87 | 1008.1 |
| 20260506125015 | 60 | 240 | 0.9 | 5.2 | 0.01 | 0.01 | 0.01 | 87 | 1007.9 |
| 20260506124515 | 60 | 258 | 0.9 | 5.2 | 0.01 | 0.01 | 0.01 | 87 | 1007.8 |
| 20260506124015 | 60 | 250 | 0.9 | 2.6 | 0.00 | 0.00 | 0.00 | 87 | 1007.5 |
| 20260506123515 | 59 | 169 | 0.9 | 2.6 | 0.00 | 0.00 | 0.00 | 88 | 1007.3 |
| 20260506122957 | 57 | 260 | 0.9 | 3.5 | 0.00 | 0.00 | 0.00 | 89 | 1007.2 |
| 20260506122011 | 56 | 51 | 0.9 | 2.6 | 0.00 | 0.00 | 0.00 | 89 | 1007.4 |
| 20260506121828 | 56 | 277 | 0.0 | 1.7 | 0.00 | 0.00 | 0.00 | 89 | 1007.4 |
| 20260506121752 | 56 | 277 | 0.0 | 0.0 | 0.00 | 0.00 | 0.00 | 89 | 1007.5 |
| 20260506120507 | 55 | 277 | 0.0 | 0.0 | 0.00 | 0.00 | 0.00 | 90 | 1007.5 |
| 20260506120233 | 55 | 277 | 0.0 | 0.0 | 0.00 | 0.00 | 0.00 | 90 | 1007.6 |
| 20260506115506 | 55 | 277 | 0.0 | 0.0 | 0.00 | 0.00 | 0.00 | 90 | 1007.6 |
| 20260506115008 | 55 | 277 | 0.0 | 0.0 | 0.00 | 0.00 | 0.00 | 90 | 1007.4 |
| 20260506114505 | 55 | 277 | 0.0 | 0.0 | 0.00 | 0.00 | 0.00 | 90 | 1007.5 |
| 20260506114457 | 55 | 277 | 0.0 | 0.0 | 0.00 | 0.00 | 0.00 | 90 | 1007.6 |
| 20260506113505 | 55 | 277 | 0.0 | 0.0 | 0.00 | 0.00 | 0.00 | 90 | 1007.5 |
| 20260506113008 | 55 | 277 | 0.0 | 0.0 | 0.00 | 0.00 | 0.00 | 90 | 1007.5 |
| 20260506112951 | 55 | 277 | 0.0 | 0.0 | 0.00 | 0.00 | 0.00 | 90 | 1007.5 |
| 20260506112004 | 54 | 277 | 0.0 | 0.0 | 0.00 | 0.00 | 0.00 | 90 | 1007.5 |
| 20260506111458 | 54 | 277 | 0.0 | 0.0 | 0.00 | 0.00 | 0.00 | 90 | 1007.5 |
| 20260506111001 | 54 | 277 | 0.0 | 0.0 | 0.00 | 0.00 | 0.00 | 90 | 1007.5 |
| 20260506110501 | 54 | 277 | 0.0 | 0.0 | 0.00 | 0.00 | 0.00 | 90 | 1007.4 |
| 20260506110227 | 54 | 277 | 0.0 | 0.0 | 0.00 | 0.00 | 0.00 | 90 | 1007.4 |
| 20260506105501 | 54 | 277 | 0.0 | 0.0 | 0.00 | 0.00 | 0.00 | 90 | 1007.3 |
| 20260506104958 | 54 | 277 | 0.0 | 0.0 | 0.00 | 0.00 | 0.00 | 90 | 1007.2 |
| 20260506104455 | 54 | 277 | 0.0 | 0.0 | 0.00 | 0.00 | 0.00 | 90 | 1007.2 |
| 20260506103955 | 54 | 277 | 0.0 | 0.0 | 0.00 | 0.00 | 0.00 | 90 | 1006.8 |
| 20260506103456 | 54 | 277 | 0.0 | 0.0 | 0.00 | 0.00 | 0.00 | 90 | 1006.8 |
| 20260506103441 | 54 | 277 | 0.0 | 0.0 | 0.00 | 0.00 | 0.00 | 90 | 1006.9 |
| 20260506102452 | 54 | 277 | 0.0 | 0.0 | 0.00 | 0.00 | 0.00 | 90 | 1006.9 |
| 20260506101953 | 54 | 277 | 0.0 | 0.0 | 0.00 | 0.00 | 0.00 | 90 | 1007.0 |
| 20260506101455 | 54 | 277 | 0.0 | 0.0 | 0.00 | 0.00 | 0.00 | 90 | 1006.9 |
| 20260506100952 | 53 | 277 | 0.0 | 0.0 | 0.00 | 0.00 | 0.00 | 90 | 1006.8 |
| 20260506100453 | 53 | 277 | 0.0 | 0.0 | 0.00 | 0.00 | 0.00 | 90 | 1006.8 |
| 20260506095952 | 53 | 277 | 0.0 | 0.0 | 0.00 | 0.00 | 0.00 | 90 | 1007.0 |
| 20260506095453 | 53 | 277 | 0.0 | 0.0 | 0.00 | 0.00 | 0.00 | 90 | 1007.1 |
| 20260506095221 | 53 | 277 | 0.0 | 0.0 | 0.00 | 0.00 | 0.00 | 90 | 1007.1 |
| 20260506094720 | 53 | 277 | 0.0 | 0.0 | 0.00 | 0.00 | 0.00 | 90 | 1007.1 |
| 20260506094209 | 53 | 277 | 0.0 | 0.9 | 0.00 | 0.00 | 0.00 | 90 | 1007.0 |
| 20260506093451 | 53 | 277 | 0.0 | 0.9 | 0.00 | 0.00 | 0.00 | 90 | 1007.0 |
| 20260506092951 | 53 | 277 | 0.0 | 0.0 | 0.00 | 0.00 | 0.00 | 90 | 1007.0 |
| 20260506092449 | 53 | 277 | 0.0 | 0.9 | 0.00 | 0.00 | 0.00 | 89 | 1006.9 |
| 20260506091950 | 53 | 277 | 0.0 | 0.9 | 0.00 | 0.00 | 0.00 | 90 | 1006.9 |
| 20260506091448 | 53 | 277 | 0.0 | 0.9 | 0.00 | 0.00 | 0.00 | 90 | 1007.0 |
| 20260506090948 | 53 | 277 | 0.0 | 0.9 | 0.00 | 0.00 | 0.00 | 90 | 1007.1 |
| 20260506090448 | 53 | 277 | 0.0 | 0.9 | 0.00 | 0.00 | 0.00 | 90 | 1007.2 |
| 20260506085949 | 53 | 277 | 0.0 | 0.9 | 0.00 | 0.00 | 0.00 | 90 | 1007.1 |
| 20260506085450 | 53 | 277 | 0.0 | 0.9 | 0.00 | 0.00 | 0.00 | 90 | 1007.3 |
| 20260506085207 | 53 | 277 | 0.0 | 0.0 | 0.00 | 0.00 | 0.00 | 89 | 1007.2 |
| 20260506084448 | 53 | 277 | 0.0 | 0.0 | 0.00 | 0.00 | 0.00 | 90 | 1007.3 |
| 20260506083948 | 53 | 277 | 0.0 | 0.0 | 0.00 | 0.00 | 0.00 | 90 | 1007.5 |
| 20260506083715 | 53 | 277 | 0.0 | 0.9 | 0.00 | 0.00 | 0.00 | 89 | 1007.4 |
| 20260506082950 | 53 | 277 | 0.0 | 1.7 | 0.00 | 0.00 | 0.00 | 89 | 1007.4 |
| 20260506082925 | 53 | 277 | 0.9 | 1.7 | 0.00 | 0.00 | 0.00 | 89 | 1007.4 |
| 20260506081945 | 53 | 277 | 0.0 | 1.7 | 0.00 | 0.00 | 0.00 | 90 | 1007.3 |
| 20260506081442 | 53 | 277 | 0.0 | 0.0 | 0.00 | 0.00 | 0.00 | 90 | 1007.2 |
| 20260506080941 | 53 | 277 | 0.0 | 0.9 | 0.00 | 0.00 | 0.00 | 90 | 1007.1 |
| 20260506080440 | 53 | 277 | 0.0 | 0.9 | 0.00 | 0.00 | 0.00 | 90 | 1007.2 |
| 20260506073430 | 53 | 277 | 0.0 | 0.0 | 0.00 | 0.00 | 0.00 | 90 | 1007.3 |
| 20260506072929 | 53 | 277 | 0.0 | 0.0 | 0.00 | 0.00 | 0.00 | 90 | 1007.4 |
| 20260506072647 | 53 | 277 | 0.0 | 0.0 | 0.00 | 0.00 | 0.00 | 90 | 1007.5 |
| 20260506071922 | 53 | 277 | 0.0 | 0.0 | 0.00 | 0.00 | 0.00 | 90 | 1007.5 |
| 20260506071420 | 53 | 277 | 0.0 | 0.9 | 0.00 | 0.00 | 0.00 | 90 | 1007.6 |
| 20260506071145 | 53 | 277 | 0.0 | 0.9 | 0.00 | 0.00 | 0.00 | 90 | 1007.5 |
| 20260506070641 | 53 | 277 | 0.0 | 0.9 | 0.00 | 0.00 | 0.00 | 90 | 1007.4 |
| 20260506061904 | 52 | 277 | 0.0 | 1.7 | 0.00 | 0.00 | 0.00 | 89 | 1007.7 |
| 20260506061415 | 52 | 277 | 0.0 | 0.9 | 0.00 | 0.00 | 0.00 | 89 | 1007.9 |
| 20260506061404 | 52 | 277 | 0.0 | 1.7 | 0.00 | 0.00 | 0.00 | 89 | 1007.8 |
| 20260506060403 | 52 | 277 | 0.0 | 0.9 | 0.00 | 0.00 | 0.00 | 89 | 1007.8 |
| 20260506051354 | 53 | 277 | 0.0 | 0.9 | 0.00 | 0.00 | 0.00 | 87 | 1008.2 |
| 20260506050855 | 53 | 277 | 0.0 | 0.9 | 0.00 | 0.00 | 0.00 | 87 | 1008.2 |
| 20260506050352 | 54 | 277 | 0.0 | 0.0 | 0.00 | 0.00 | 0.00 | 86 | 1008.2 |
| 20260506044846 | 54 | 277 | 0.0 | 0.0 | 0.00 | 0.00 | 0.00 | 86 | 1008.2 |
| 20260506044340 | 55 | 277 | 0.0 | 0.9 | 0.00 | 0.00 | 0.00 | 85 | 1008.2 |
| 20260506043842 | 55 | 277 | 0.0 | 0.9 | 0.00 | 0.00 | 0.00 | 85 | 1008.2 |
| 20260506043340 | 55 | 277 | 0.0 | 0.9 | 0.00 | 0.00 | 0.00 | 85 | 1008.3 |
| 20260506042838 | 55 | 277 | 0.0 | 0.9 | 0.00 | 0.00 | 0.00 | 84 | 1008.3 |
| 20260506042338 | 55 | 277 | 0.0 | 0.9 | 0.00 | 0.00 | 0.00 | 84 | 1008.4 |
| 20260506041834 | 56 | 277 | 0.0 | 0.9 | 0.00 | 0.00 | 0.00 | 84 | 1008.5 |
| 20260506041552 | 56 | 277 | 0.0 | 0.0 | 0.00 | 0.00 | 0.00 | 84 | 1008.5 |
| 20260506040831 | 56 | 277 | 0.0 | 0.0 | 0.00 | 0.00 | 0.00 | 82 | 1008.3 |
| 20260506040822 | 56 | 277 | 0.0 | 0.9 | 0.00 | 0.00 | 0.00 | 82 | 1008.5 |
| 20260506035829 | 56 | 277 | 0.0 | 0.9 | 0.00 | 0.00 | 0.00 | 82 | 1008.5 |
| 20260506035542 | 57 | 277 | 0.0 | 0.0 | 0.00 | 0.00 | 0.00 | 81 | 1008.5 |
| 20260506034825 | 57 | 277 | 0.0 | 0.0 | 0.00 | 0.00 | 0.00 | 81 | 1008.5 |
| 20260506034326 | 57 | 277 | 0.0 | 0.9 | 0.00 | 0.00 | 0.00 | 81 | 1008.5 |
| 20260506033823 | 58 | 277 | 0.0 | 0.9 | 0.00 | 0.00 | 0.00 | 82 | 1008.5 |
| 20260506033320 | 58 | 277 | 0.0 | 0.0 | 0.00 | 0.00 | 0.00 | 80 | 1008.4 |
| 20260506032819 | 58 | 277 | 0.0 | 0.0 | 0.00 | 0.00 | 0.00 | 80 | 1008.4 |
| 20260506032319 | 59 | 277 | 0.0 | 0.0 | 0.00 | 0.00 | 0.00 | 80 | 1008.4 |
| 20260506031817 | 59 | 277 | 0.0 | 0.9 | 0.00 | 0.00 | 0.00 | 80 | 1008.4 |
| 20260506031315 | 59 | 277 | 0.0 | 0.9 | 0.00 | 0.00 | 0.00 | 79 | 1008.3 |
| 20260506030813 | 60 | 277 | 0.0 | 0.0 | 0.00 | 0.00 | 0.00 | 78 | 1008.4 |
| 20260506030311 | 60 | 277 | 0.0 | 0.0 | 0.00 | 0.00 | 0.00 | 77 | 1008.3 |
| 20260506025809 | 60 | 277 | 0.0 | 0.0 | 0.00 | 0.00 | 0.00 | 76 | 1008.3 |
| 20260506025309 | 61 | 277 | 0.0 | 1.7 | 0.00 | 0.00 | 0.00 | 76 | 1008.3 |
| 20260506024808 | 61 | 277 | 0.0 | 1.7 | 0.00 | 0.00 | 0.00 | 74 | 1008.3 |
| 20260506024309 | 62 | 277 | 0.0 | 0.9 | 0.00 | 0.00 | 0.00 | 75 | 1008.2 |
| 20260506023808 | 62 | 277 | 0.0 | 0.9 | 0.00 | 0.00 | 0.00 | 74 | 1008.3 |
| 20260506023308 | 62 | 277 | 0.0 | 0.9 | 0.00 | 0.00 | 0.00 | 73 | 1008.3 |
| 20260506023032 | 62 | 277 | 0.0 | 0.9 | 0.00 | 0.00 | 0.00 | 73 | 1008.3 |
| 20260506022308 | 63 | 277 | 0.0 | 0.9 | 0.00 | 0.00 | 0.00 | 74 | 1008.4 |
| 20260506021809 | 63 | 277 | 0.0 | 1.7 | 0.00 | 0.00 | 0.00 | 74 | 1008.4 |
| 20260506021303 | 64 | 277 | 0.9 | 1.7 | 0.00 | 0.00 | 0.00 | 74 | 1008.4 |
| 20260506020803 | 64 | 277 | 0.9 | 1.7 | 0.00 | 0.00 | 0.00 | 73 | 1008.4 |
| 20260506020303 | 64 | 277 | 0.0 | 0.9 | 0.00 | 0.00 | 0.00 | 71 | 1008.4 |
| 20260506015803 | 64 | 277 | 0.0 | 0.9 | 0.00 | 0.00 | 0.00 | 70 | 1008.2 |
| 20260506015305 | 65 | 277 | 0.0 | 0.9 | 0.00 | 0.00 | 0.00 | 72 | 1008.3 |
| 20260506014804 | 65 | 277 | 0.0 | 0.9 | 0.00 | 0.00 | 0.00 | 72 | 1008.3 |
| 20260506014303 | 65 | 277 | 0.0 | 1.7 | 0.00 | 0.00 | 0.00 | 71 | 1008.3 |
| 20260506014025 | 65 | 277 | 0.9 | 1.7 | 0.00 | 0.00 | 0.00 | 66 | 1008.2 |
| 20260506013302 | 66 | 277 | 0.9 | 1.7 | 0.00 | 0.00 | 0.00 | 65 | 1008.2 |
| 20260506013252 | 66 | 277 | 0.0 | 1.7 | 0.00 | 0.00 | 0.00 | 66 | 1008.0 |
| 20260506012903 | 66 | 277 | 0.9 | 1.7 | 0.00 | 0.00 | 0.00 | 66 | 1008.1 |
| 20260506012025 | 66 | 277 | 0.0 | 0.9 | 0.00 | 0.00 | 0.00 | 68 | 1007.9 |
| 20260506011302 | 67 | 277 | 0.0 | 0.9 | 0.00 | 0.00 | 0.00 | 67 | 1007.9 |
| 20260506011025 | 67 | 277 | 0.0 | 0.9 | 0.00 | 0.00 | 0.00 | 65 | 1007.7 |
| 20260506010303 | 67 | 277 | 0.0 | 0.9 | 0.00 | 0.00 | 0.00 | 66 | 1007.6 |
| 20260506005800 | 68 | 277 | 0.0 | 0.9 | 0.00 | 0.00 | 0.00 | 67 | 1007.5 |
| 20260506005525 | 68 | 277 | 0.0 | 0.9 | 0.00 | 0.00 | 0.00 | 66 | 1007.5 |
| 20260506004801 | 68 | 277 | 0.0 | 1.7 | 0.00 | 0.00 | 0.00 | 65 | 1007.4 |
| 20260506004303 | 69 | 277 | 0.9 | 1.7 | 0.00 | 0.00 | 0.00 | 65 | 1007.3 |
| 20260506003803 | 69 | 277 | 0.9 | 1.7 | 0.00 | 0.00 | 0.00 | 65 | 1007.4 |
| 20260506003300 | 69 | 277 | 0.9 | 1.7 | 0.00 | 0.00 | 0.00 | 64 | 1007.5 |
| 20260506002801 | 69 | 277 | 0.0 | 1.7 | 0.00 | 0.00 | 0.00 | 64 | 1007.4 |
| 20260506002301 | 69 | 277 | 0.0 | 0.9 | 0.00 | 0.00 | 0.00 | 63 | 1007.4 |
| 20260506001802 | 70 | 277 | 0.0 | 1.7 | 0.00 | 0.00 | 0.00 | 62 | 1007.4 |
| 20260506001301 | 70 | 277 | 0.0 | 1.7 | 0.00 | 0.00 | 0.00 | 59 | 1007.3 |
| 20260506000801 | 70 | 277 | 0.0 | 0.9 | 0.00 | 0.00 | 0.00 | 60 | 1007.3 |